Location: Recife
(8.0585°S, 34.8848°W)
Time: 10:13:59
(UTC-03:00)

Vanguard 2 Rocket - Pass Details

Date: 22 April 2026
Orbit: 553 x 3286 km, 32.9° (Epoch: 8 May)

Event Time Altitude Azimuth Distance (km) Brightness Sun altitude
Rises 10:45:49 0° 230° (SW) 5,746 10.8 68.1°
Reaches altitude 10° 10:49:14 10° 225° (SW) 5,049 10.6 68.4°
Maximum altitude 11:05:14 59° 148° (SSE) 3,454 10.6 69.4°
Drops below altitude 10° 11:24:58 10° 72° (ENE) 6,103 11.3 69.5°
Sets 11:29:32 0° 68° (ENE) 6,959 11.5 69.4°
